Data for 07/08/2018

Time Sea-Level Adjusted Pressure Absolute Pressure Temperature Relative Humidity Dew Point   
(mb) (inHg) (mb) (inHg) (C) (F) (%) (C) (F)
00:05 1022 30.18 851 25.13 17.8 64 62 10.5 50.9
00:10 1022 30.18 851 25.13 17.2 62.9 63 10.1 50.1
00:15 1022 30.18 851 25.13 17 62.7 64 10.1 50.3
00:20 1022 30.18 851 25.13 16.9 62.5 64 10.1 50.2
00:25 1022 30.18 851 25.13 16.9 62.3 65 10.3 50.5
00:30 1022 30.18 851 25.13 16.7 62.1 65 10.3 50.6
00:35 1022 30.18 851 25.13 16.5 61.7 67 10.4 50.6
00:40 1022 30.18 851 25.13 16.3 61.3 68 10.4 50.7
00:45 1022 30.18 852 25.16 16.1 61.1 68 10.3 50.5
00:50 1022 30.18 852 25.16 16 60.7 69 10.4 50.7
00:55 1022 30.18 852 25.16 15.8 60.4 68 10 50
01:00 1022 30.18 852 25.16 16.1 60.9 66 9.7 49.5
01:05 1022 30.18 852 25.16 16.5 61.7 62 9.4 48.9
01:10 1022 30.18 852 25.16 16.8 62.3 61 9.4 49
01:15 1022 30.18 852 25.16 16.9 62.4 61 9.4 49
01:20 1022 30.18 852 25.16 16.8 62.2 60 9.1 48.4
01:25 1022 30.18 852 25.16 16.8 62.2 56 7.9 46.3
01:30 1022 30.18 852 25.16 17.1 62.8 53 7.5 45.5
01:35 1023 30.21 852 25.16 17.4 63.2 51 7.3 45.2
01:40 1023 30.21 852 25.16 17.5 63.4 52 7.6 45.7
01:45 1023 30.21 852 25.16 17.5 63.4 50 7 44.7
01:50 1023 30.21 852 25.16 17.6 63.6 47 6.3 43.3
01:55 1023 30.21 852 25.16 17.7 63.9 44 5.3 41.6
02:00 1023 30.21 852 25.16 18.1 64.5 42 5.2 41.3
02:05 1023 30.21 852 25.16 18 64.5 44 5.6 42.1
02:10 1023 30.21 852 25.16 17.8 64 47 6.4 43.5
02:15 1023 30.21 852 25.16 17.1 62.8 52 7.2 44.9
02:20 1023 30.21 852 25.16 16.2 61.1 55 7.2 45
02:25 1023 30.21 852 25.16 15.9 60.6 55 6.9 44.4
02:30 1023 30.21 852 25.16 15.9 60.5 58 7.8 46
02:35 1023 30.21 852 25.16 15.4 59.7 62 8.3 47
02:40 1023 30.21 852 25.16 15.1 59.1 64 8.5 47.2
02:45 1023 30.21 852 25.16 14.9 58.8 64 8.3 47
02:50 1023 30.21 852 25.16 14.9 58.9 63 8 46.4
02:55 1023 30.21 852 25.16 15.1 59.1 63 8.1 46.6
03:00 1023 30.21 852 25.16 14.8 58.6 65 8.3 47
03:05 1023 30.21 852 25.16 14.5 58.1 66 8.4 47
03:10 1023 30.21 852 25.16 14.5 58.1 66 8.3 46.9
03:15 1023 30.21 852 25.16 14.6 58.2 66 8.3 46.9
03:20 1023 30.21 852 25.16 14.6 58.2 65 8.2 46.7
03:25 1023 30.21 852 25.16 14.7 58.4 63 7.7 45.9
03:30 1023 30.21 852 25.16 14.9 58.7 62 7.8 46
03:35 1023 30.21 852 25.16 14.8 58.6 63 7.8 46.1
03:40 1023 30.21 852 25.16 14.6 58.3 63 7.8 46
03:45 1022 30.18 852 25.16 14.5 58 64 7.8 46
03:50 1022 30.18 852 25.16 14.5 58 63 7.6 45.7
03:55 1022 30.18 852 25.16 14.5 58.1 63 7.6 45.6
04:00 1022 30.18 852 25.16 14.4 57.9 64 7.6 45.7
04:05 1022 30.18 851 25.13 14.3 57.8 64 7.7 45.8
04:10 1022 30.18 851 25.13 14.3 57.7 63 7.4 45.4
04:15 1022 30.18 851 25.13 14.4 57.9 62 7.3 45.1
04:20 1022 30.18 851 25.13 14.6 58.2 60 7.1 44.8
04:25 1022 30.18 851 25.13 14.6 58.3 61 7.2 44.9
04:30 1022 30.18 851 25.13 14.7 58.4 60 7.1 44.8
04:35 1022 30.18 851 25.13 14.7 58.5 59 6.8 44.3
04:40 1022 30.18 851 25.13 14.7 58.5 60 7.1 44.8
04:45 1022 30.18 851 25.13 14.6 58.2 61 7.1 44.8
04:50 1022 30.18 851 25.13 14.3 57.8 62 7.3 45.1
04:55 1022 30.18 851 25.13 14.2 57.6 59 6.4 43.5
05:00 1022 30.18 851 25.13 14.6 58.3 58 6.6 43.8
05:05 1022 30.18 852 25.16 14.6 58.2 59 6.8 44.3
05:10 1023 30.21 852 25.16 14.3 57.8 59 6.5 43.7
05:15 1023 30.21 852 25.16 14.2 57.6 60 6.7 44
05:20 1023 30.21 852 25.16 14.1 57.4 59 6.4 43.5
05:25 1023 30.21 852 25.16 14.1 57.3 60 6.5 43.8
05:30 1023 30.21 852 25.16 13.9 57 61 6.6 43.9
05:35 1023 30.21 852 25.16 13.9 57 62 6.7 44.1
05:40 1023 30.21 852 25.16 13.8 56.9 62 6.7 44.1
05:45 1023 30.21 852 25.16 13.8 56.8 63 7 44.6
05:50 1023 30.21 852 25.16 13.6 56.5 65 7.3 45.1
05:55 1023 30.21 852 25.16 13.3 55.9 67 7.3 45.1
06:00 1023 30.21 852 25.16 13 55.3 68 7.2 45
06:05 1023 30.21 852 25.16 12.9 55.2 67 7 44.7
06:10 1023 30.21 852 25.16 13.1 55.5 67 7.1 44.7
06:15 1023 30.21 852 25.16 13 55.5 66 7 44.5
06:20 1023 30.21 852 25.16 13.2 55.8 66 7 44.5
06:25 1023 30.21 852 25.16 13.5 56.2 65 7 44.7
06:30 1023 30.21 852 25.16 13.8 56.8 64 7.2 44.9
06:35 1023 30.21 852 25.16 13.7 56.7 65 7.4 45.3
06:40 1023 30.21 853 25.19 13.6 56.5 65 7.3 45.1
06:45 1023 30.21 852 25.16 13.5 56.3 65 7 44.7
06:50 1023 30.21 852 25.16 13.8 56.9 61 6.6 43.8
06:55 1023 30.21 852 25.16 14.2 57.5 61 6.9 44.4
07:00 1023 30.21 852 25.16 14.3 57.8 62 7.2 44.9
07:05 1023 30.21 852 25.16 14.2 57.6 63 7.3 45.1
07:10 1023 30.21 852 25.16 14.6 58.2 61 7.2 44.9
07:15 1023 30.21 852 25.16 14.9 58.8 62 7.6 45.8
07:20 1023 30.21 852 25.16 14.9 58.8 62 7.8 46
07:25 1023 30.21 852 25.16 15.2 59.3 61 7.7 45.9
07:30 1023 30.21 853 25.19 15.4 59.8 59 7.6 45.8
07:35 1023 30.21 853 25.19 15.7 60.3 59 7.7 45.8
07:40 1023 30.21 853 25.19 16.3 61.3 56 7.5 45.6
07:45 1024 30.24 853 25.19 16.5 61.8 55 7.5 45.5
07:50 1024 30.24 853 25.19 16.6 61.9 54 7.4 45.3
07:55 1024 30.24 853 25.19 16.8 62.3 55 7.9 46.3
08:00 1024 30.24 853 25.19 17 62.7 58 8.7 47.6
08:05 1024 30.24 853 25.19 16.7 62 59 8.6 47.5
08:10 1024 30.24 853 25.19 16.6 61.9 58 8.5 47.3
08:15 1024 30.24 853 25.19 16.5 61.6 60 8.8 47.8
08:20 1024 30.24 853 25.19 16.7 62.1 59 8.7 47.7
08:25 1024 30.24 853 25.19 16.9 62.5 60 9.1 48.4
08:30 1024 30.24 853 25.19 16.9 62.4 59 9 48.1
08:35 1024 30.24 853 25.19 17.1 62.7 58 8.9 48
08:40 1024 30.24 853 25.19 17.6 63.7 55 8.6 47.5
08:45 1024 30.24 853 25.19 17.8 64.1 56 8.9 48.1
08:50 1024 30.24 853 25.19 17.8 64 54 8.5 47.3
08:55 1024 30.24 853 25.19 18 64.5 53 8.5 47.3
09:00 1024 30.24 853 25.19 18.2 64.7 55 9.1 48.3
09:05 1024 30.24 853 25.19 17.8 64 56 9 48.1
09:10 1024 30.24 853 25.19 17.8 64 56 8.9 48
09:15 1024 30.24 853 25.19 17.8 64 56 9 48.2
09:20 1024 30.24 853 25.19 18.2 64.8 52 8.4 47.2
09:25 1024 30.24 853 25.19 19 66.3 51 8.8 47.8
09:30 1024 30.24 853 25.19 19.2 66.6 46 7.5 45.5
09:35 1024 30.24 853 25.19 19.1 66.4 44 6.8 44.2
09:40 1024 30.24 853 25.19 18.9 66 46 7 44.6
09:45 1024 30.24 853 25.19 19.3 66.8 43 6.5 43.8
09:50 1024 30.24 853 25.19 19.6 67.4 41 6.1 43
09:55 1024 30.24 853 25.19 19.3 66.7 41 5.8 42.4
10:00 1024 30.24 853 25.19 19.7 67.5 41 6.3 43.4
10:05 1024 30.24 853 25.19 20.2 68.3 40 6.2 43.1
10:10 1024 30.24 853 25.19 20.6 69 40 6.5 43.7
10:15 1024 30.24 853 25.19 20.3 68.5 42 7.1 44.9
10:20 1023 30.21 853 25.19 19.8 67.7 43 7.1 44.8
10:25 1023 30.21 853 25.19 20 67.9 42 6.8 44.2
10:30 1023 30.21 853 25.19 20.6 69 41 6.9 44.4
10:35 1023 30.21 853 25.19 20.6 69 44 7.9 46.2
10:40 1023 30.21 853 25.19 20.3 68.5 42 7 44.5
10:45 1023 30.21 853 25.19 20.3 68.6 40 6.4 43.4
10:50 1023 30.21 853 25.19 20.6 69 42 7.4 45.4
10:55 1023 30.21 852 25.16 20.2 68.3 38 5.7 42.2
11:00 1023 30.21 853 25.19 20.4 68.7 41 6.9 44.4
11:05 1023 30.21 853 25.19 20.6 69.1 35 5 40.9
11:10 1023 30.21 853 25.19 21.2 70.1 37 5.9 42.6
11:15 1023 30.21 852 25.16 21.2 70.2 37 6.1 43
11:20 1023 30.21 852 25.16 21.8 71.3 34 5.6 42
11:25 1023 30.21 852 25.16 22.2 71.9 32 5.1 41.2
11:30 1023 30.21 852 25.16 22.9 73.2 32 5.5 41.9
11:35 1023 30.21 852 25.16 22.7 72.8 34 6 42.9
11:40 1023 30.21 852 25.16 22.5 72.6 36 7 44.7
11:45 1023 30.21 852 25.16 22.6 72.7 36 7 44.5
11:50 1023 30.21 852 25.16 22.5 72.4 40 8.3 46.9
11:55 1023 30.21 852 25.16 21.6 70.9 40 7.6 45.7
12:00 1023 30.21 852 25.16 21.6 71 40 7.6 45.7
12:05 1023 30.21 852 25.16 22.1 71.8 41 8.5 47.4
12:10 1023 30.21 852 25.16 22.2 71.9 38 7.4 45.3
12:15 1023 30.21 852 25.16 22.5 72.5 38 7.8 46
12:20 1023 30.21 852 25.16 22.7 72.8 40 8.4 47.1
12:25 1023 30.21 852 25.16 22.4 72.4 41 8.8 47.8
12:30 1023 30.21 852 25.16 22.5 72.5 38 7.6 45.7
12:35 1023 30.21 852 25.16 22.5 72.4 41 8.6 47.4
12:40 1023 30.21 852 25.16 22.8 73 37 7.6 45.8
12:45 1023 30.21 852 25.16 22.4 72.4 38 7.8 46
12:50 1023 30.21 852 25.16 22.9 73.2 35 6.9 44.4
12:55 1023 30.21 852 25.16 23.9 75.1 32 6.5 43.7
13:00 1023 30.21 852 25.16 24.5 76.2 32 6.9 44.4
13:05 1023 30.21 852 25.16 24.2 75.6 33 7.2 45
13:10 1023 30.21 852 25.16 24 75.2 32 6.4 43.5
13:15 1023 30.21 852 25.16 23.5 74.3 36 7.6 45.7
13:20 1023 30.21 852 25.16 23.3 74 36 7.5 45.5
13:25 1023 30.21 852 25.16 23.4 74.1 35 7.5 45.4
13:30 1023 30.21 852 25.16 24 75.1 36 8.1 46.6
13:35 1023 30.21 852 25.16 23.7 74.7 38 8.8 47.8
13:40 1023 30.21 852 25.16 23.9 75 36 8.3 46.9
13:45 1023 30.21 852 25.16 24.2 75.5 37 8.8 47.8
13:50 1023 30.21 852 25.16 24 75.1 38 9.1 48.3
13:55 1022 30.18 852 25.16 23.7 74.7 37 8.3 46.9
14:00 1022 30.18 852 25.16 23.1 73.6 42 9.7 49.5
14:05 1022 30.18 851 25.13 23 73.4 39 8.6 47.5
14:10 1022 30.18 852 25.16 23.2 73.8 40 9.1 48.4
14:15 1022 30.18 852 25.16 23.9 75.1 39 9.3 48.8
14:20 1023 30.21 852 25.16 24.1 75.4 40 9.9 49.7
14:25 1022 30.18 852 25.16 24 75.2 40 9.6 49.3
14:30 1022 30.18 852 25.16 23.3 73.9 41 9.5 49.1
14:35 1022 30.18 851 25.13 23.7 74.7 40 9.5 49.1
14:40 1022 30.18 851 25.13 23.5 74.2 41 9.5 49.1
14:45 1022 30.18 851 25.13 23.2 73.7 43 10.1 50.2
14:50 1022 30.18 851 25.13 23.6 74.4 40 9.3 48.8
14:55 1022 30.18 851 25.13 23.8 74.9 41 10 50.1
15:00 1022 30.18 851 25.13 23.5 74.3 42 10 50
15:05 1022 30.18 851 25.13 23.3 74 41 9.4 48.9
15:10 1022 30.18 851 25.13 23.5 74.4 41 9.6 49.3
15:15 1022 30.18 851 25.13 23.8 74.9 40 9.6 49.3
15:20 1022 30.18 851 25.13 24.1 75.4 42 10.5 50.9
15:25 1022 30.18 851 25.13 24.1 75.4 42 10.5 50.9
15:30 1022 30.18 851 25.13 23.7 74.6 43 10.5 50.9
15:35 1022 30.18 851 25.13 23.7 74.6 45 11.1 51.9
15:40 1021 30.15 851 25.13 24.1 75.3 43 10.9 51.7
15:45 1022 30.18 851 25.13 24 75.1 44 11.1 52
15:50 1021 30.15 851 25.13 24.4 75.8 44 11.5 52.7
15:55 1021 30.15 851 25.13 24.3 75.8 43 11.3 52.3
16:00 1021 30.15 851 25.13 24.1 75.4 44 11.4 52.6
16:05 1021 30.15 851 25.13 25 77 41 11.1 51.9
16:10 1021 30.15 850 25.1 25.2 77.3 41 11.4 52.5
16:15 1021 30.15 850 25.1 25.4 77.7 41 11.3 52.4
16:20 1021 30.15 850 25.1 25.8 78.5 39 11.2 52.2
16:25 1021 30.15 850 25.1 26.1 79.1 40 11.6 52.9
16:30 1021 30.15 850 25.1 26.3 79.3 36 10.3 50.5
16:35 1021 30.15 850 25.1 26.3 79.4 37 10.8 51.4
16:40 1021 30.15 850 25.1 25.8 78.5 37 10.1 50.3
16:45 1021 30.15 850 25.1 25.3 77.5 35 9.1 48.4
16:50 1021 30.15 850 25.1 25.4 77.7 34 8.6 47.5
16:55 1021 30.15 850 25.1 25.6 78.1 34 8.7 47.6
17:00 1021 30.15 850 25.1 25.4 77.7 35 8.9 48.1
17:05 1021 30.15 850 25.1 25.4 77.7 34 8.7 47.6
17:10 1021 30.15 851 25.13 24.9 76.8 36 8.9 48.1
17:15 1022 30.18 851 25.13 25.1 77.2 35 8.9 48
17:20 1022 30.18 851 25.13 25.5 77.9 36 9.4 48.9
17:25 1022 30.18 851 25.13 25.8 78.4 35 9.4 48.9
17:30 1021 30.15 851 25.13 26.1 79 34 9.3 48.7
17:35 1021 30.15 851 25.13 26.1 79.1 35 9.6 49.3
17:40 1021 30.15 851 25.13 26.1 79 34 9.1 48.4
17:45 1021 30.15 851 25.13 25.7 78.3 34 8.9 47.9
17:50 1021 30.15 850 25.1 25.9 78.7 33 8.8 47.8
17:55 1021 30.15 850 25.1 25.8 78.5 35 9.3 48.7
18:00 1021 30.15 850 25.1 25.9 78.6 36 10 50
18:05 1021 30.15 850 25.1 25.6 78.1 37 10.1 50.3
18:10 1021 30.15 850 25.1 25.5 77.9 37 10 49.9
18:15 1021 30.15 850 25.1 25.3 77.6 36 9.4 49
18:20 1021 30.15 850 25.1 25.3 77.5 35 8.9 48.1
18:25 1021 30.15 850 25.1 25.2 77.4 35 8.7 47.7
18:30 1021 30.15 850 25.1 25.3 77.5 35 8.9 48
18:35 1021 30.15 850 25.1 25.4 77.8 35 8.9 48.1
18:40 1021 30.15 850 25.1 25.2 77.3 35 8.9 48.1
18:45 1021 30.15 850 25.1 25 77 35 8.5 47.3
18:50 1021 30.15 850 25.1 24.8 76.7 34 8.4 47
18:55 1021 30.15 850 25.1 24.9 76.8 36 8.9 48
19:00 1021 30.15 850 25.1 24.9 76.9 36 9.2 48.5
19:05 1021 30.15 850 25.1 25 77 36 9.2 48.6
19:10 1021 30.15 850 25.1 24.9 76.9 38 9.9 49.8
19:15 1021 30.15 850 25.1 24.7 76.4 40 10.3 50.5
19:20 1021 30.15 850 25.1 24.5 76.1 40 10.4 50.7
19:25 1021 30.15 850 25.1 24.5 76.2 41 10.6 51.1
19:30 1021 30.15 850 25.1 24.4 76 42 11 51.8
19:35 1021 30.15 850 25.1 24.3 75.8 43 11 51.8
19:40 1021 30.15 850 25.1 24.2 75.6 43 10.9 51.7
19:45 1021 30.15 850 25.1 24.2 75.6 42 10.7 51.3
19:50 1021 30.15 850 25.1 24.2 75.5 42 10.7 51.3
19:55 1021 30.15 850 25.1 24.1 75.4 42 10.5 51
20:00 1021 30.15 850 25.1 24.2 75.5 42 10.5 50.9
20:05 1021 30.15 850 25.1 24.1 75.4 41 10.4 50.7
20:10 1021 30.15 850 25.1 24.1 75.4 41 10.1 50.2
20:15 1021 30.15 850 25.1 24 75.3 40 9.8 49.6
20:20 1021 30.15 850 25.1 24 75.2 40 9.9 49.9
20:25 1021 30.15 850 25.1 23.9 75.1 41 10 50.1
20:30 1021 30.15 850 25.1 23.9 74.9 41 9.8 49.7
20:35 1021 30.15 850 25.1 23.8 74.8 41 10.1 50.1
20:40 1021 30.15 850 25.1 23.5 74.4 41 9.9 49.8
20:45 1021 30.15 850 25.1 23.4 74 42 9.9 49.8
20:50 1021 30.15 850 25.1 23.2 73.8 43 10 50
20:55 1021 30.15 850 25.1 23.2 73.7 42 9.8 49.6
21:00 1021 30.15 850 25.1 23.1 73.6 42 9.8 49.7
21:05 1021 30.15 850 25.1 23 73.3 44 10.2 50.4
21:10 1021 30.15 850 25.1 22.7 72.9 44 10.1 50.2
21:15 1021 30.15 850 25.1 22.6 72.7 45 10.2 50.4
21:20 1021 30.15 850 25.1 22.4 72.3 45 10.2 50.4
21:25 1021 30.15 850 25.1 22.3 72.1 46 10.2 50.3
21:30 1021 30.15 850 25.1 22.3 72.1 47 10.5 51
21:35 1021 30.15 850 25.1 22.2 71.9 47 10.6 51.1
21:40 1021 30.15 850 25.1 22.1 71.7 48 10.8 51.4
21:45 1021 30.15 850 25.1 21.9 71.4 49 11 51.7
21:50 1021 30.15 851 25.13 21.9 71.5 49 10.8 51.4
21:55 1021 30.15 851 25.13 22 71.6 48 10.6 51.1
22:00 1021 30.15 851 25.13 22.1 71.8 47 10.5 50.8
22:05 1021 30.15 851 25.13 22.1 71.9 47 10.4 50.7
22:10 1022 30.18 851 25.13 22.1 71.8 47 10.5 50.9
22:15 1022 30.18 851 25.13 22.1 71.7 47 10.3 50.6
22:20 1022 30.18 851 25.13 22.1 71.7 47 10.3 50.5
22:25 1022 30.18 851 25.13 22 71.7 47 10.3 50.6
22:30 1022 30.18 851 25.13 22 71.5 47 10.3 50.6
22:35 1022 30.18 851 25.13 21.9 71.4 47 10.3 50.6
22:40 1022 30.18 851 25.13 21.7 71.1 48 10.3 50.6
22:45 1022 30.18 851 25.13 21.5 70.7 49 10.5 50.8
22:50 1022 30.18 851 25.13 21.5 70.7 49 10.5 50.9
22:55 1022 30.18 851 25.13 21.5 70.6 49 10.5 50.9
23:00 1022 30.18 851 25.13 21.4 70.6 49 10.6 51
23:05 1022 30.18 851 25.13 21.3 70.3 50 10.6 51
23:10 1022 30.18 851 25.13 21.1 70.1 50 10.5 51
23:15 1022 30.18 851 25.13 21 69.7 51 10.6 51.1
23:20 1022 30.18 851 25.13 20.6 69.1 52 10.6 51
23:25 1022 30.18 851 25.13 20.3 68.5 53 10.4 50.8
23:30 1022 30.18 851 25.13 20.2 68.4 52 10.2 50.4
23:35 1022 30.18 851 25.13 20.3 68.5 52 10.1 50.2
23:40 1022 30.18 851 25.13 20.3 68.5 52 10.2 50.4
23:45 1022 30.18 852 25.16 20.1 68.2 53 10.3 50.5
23:50 1022 30.18 852 25.16 19.9 67.9 53 10.2 50.3
23:55 1023 30.21 852 25.16 19.8 67.7 54 10.4 50.7
24:00 1023 30.21 852 25.16 19.5 67.1 55 10.4 50.7